Simultaneous Nadir Overpasses (SNOs) Predictions

Prediction of SNOs between AQUA and GOES-15 Satellite Orbit:

Table of predicted SNOs for the next 14.0 days since TLE Epoch: 8/24/2019
Index Date Time (AQUA) AQUA Lat,Lon GOES-15 Lat,Lon Distance(km) Time Diff (sec)
1 08/24/2019 22:03:55 -0.09,-127.10 -0.38,-128.42 150.00 80
2 08/25/2019 10:25:09 1.23,-132.25 0.39,-128.42 435.34 80
3 08/26/2019 21:51:44 0.56,-124.15 -0.38,-128.40 484.23 80
4 08/27/2019 10:12:58 0.58,-129.30 0.38,-128.41 101.43 80
5 08/29/2019 10:00:47 -0.08,-126.35 0.37,-128.38 232.00 80
6 08/29/2019 22:22:11 -1.04,-131.54 -0.38,-128.36 360.70 80
7 08/31/2019 22:09:59 -0.44,-128.57 -0.37,-128.34 27.37 80
8 09/02/2019 21:57:48 0.21,-125.62 -0.37,-128.31 305.90 80
9 09/03/2019 10:19:03 0.91,-130.77 0.37,-128.32 279.06 80
10 09/05/2019 10:06:52 0.25,-127.82 0.37,-128.29 53.50 80




NCC Satellite Simultaneous Nadir Overpasses (SNOs) Prediction Service
